Location: Newark
(37.0133°S, 81.3511°E)
Time: 10:43:11
(UTC+00:00)

N. Korean satellite - Pass Details

Date: 29 January 2020
Orbit: 456 x 505 km, 97.2° (Epoch: 25 February)

Event Time Altitude Azimuth Distance (km) Brightness Sun altitude
Rises 23:13:05 0° 28° (NNE) 2,600 10.3 -6.9°
Reaches altitude 10° 23:15:14 10° 34° (NE) 1,724 9.4 -6.5°
Maximum altitude 23:18:45 42° 105° (ESE) 739 8.2 -5.9°
Drops below altitude 10° 23:22:19 10° 177° (S) 1,741 9.8 -5.3°
Sets 23:24:29 0° 183° (S) 2,630 10.6 -4.9°
